Starlink 35709

operational
NORAD ID: 66216 Int'l Des: 2025-244 Owner: SPXS Country: US Constellation: starlink
NOTLE

Über Starlink 35709

Beschreibung wird geladen...

Live-Position

3D-Globus wird geladen...

Nächste Überflüge

Höhenverlauf

Altitude vs Time

uPlot chart will show altitude changes over time

Zweizeiliger Elementsatz

1 66216U 25244L 25350.16750498 .00047592 00000-0 11920-2 0 9995
2 66216 53.1608 259.8709 0001228 68.6579 291.4557 15.39629089 8845
Epoch: 16. Dez. 2025 • Age: 22 hours

Aktueller Status

Höhe 459.9 km
Geschwindigkeit 7.64 km/s
Subsatellitenpunkt -38.38°S, 109.36°E
Startdatum 28. Okt. 2025
Alter 0.1 years
Typ internet

Technische Details

Klassifizierung Payload
Masse 575.00 kg
Trockenmasse 530.00 kg
Gesamtmasse 575.00 kg
Länge 0.30 m
Durchmesser 4.10 m
Spannweite 29.00 m
Form Box + pan
Hersteller SPXS
Bus-Typ Starlink V2MO
Phasenstatus In Orbit
Besitzer/Staat SPXS/US

Große Konstellationen

Loading constellations...